Wind_Speed
4 6 7 8 11 10 8 11 15 15 12 14 17 15 11 9 7 6 10 12 9 4 3 3 2 6 10 9 6 4 6 11 20 27 30 30 30 29 28 30 30 30 29 28 28 26 25 25 24 23 22 20 20 19 19 19 18 18 18 18 18 18 17
5 5 7 8 9 8 8 10 11 10 10 12 14 11 8 8 7 7 11 12 9 6 4 4 3 5 9 10 9 7 6 7 12 25 32 31 32 31 29 30 31 30 30 28 28 27 26 25 24 24 22 21 21 20 19 18 18 17 17 17 17 17 17
5 5 8 9 8 8 10 10 8 7 8 9 10 10 8 8 7 5 10 14 10 5 3 2 4 5 7 10 11 11 11 8 8 18 30 32 32 33 30 30 32 31 30 29 28 28 27 25 25 24 23 22 21 21 20 19 18 17 16 16 16 16 16
5 5 8 9 10 12 12 10 9 9 9 9 10 11 11 10 7 3 7 11 6 1 1 2 6 7 8 12 14 14 13 12 10 14 25 33 33 32 31 31 32 33 31 30 29 29 28 26 25 24 23 23 22 21 21 20 19 18 17 17 17 16 16
6 6 6 7 9 10 10 10 11 10 11 12 12 14 15 12 7 3 5 7 1 2 3 7 10 9 7 10 12 14 13 12 12 13 21 32 34 32 32 32 33 33 32 30 31 30 29 27 26 24 24 24 23 22 22 20 19 19 19 18 17 17 17
10 7 4 6 7 7 6 9 11 9 10 10 6 8 14 15 11 7 7 7 1 2 4 9 10 7 3 7 9 9 11 12 12 13 18 27 33 34 32 31 33 33 32 31 31 30 29 28 27 25 24 24 23 23 22 21 20 20 20 19 18 18 17
13 8 4 6 8 8 9 9 10 9 9 9 6 6 12 14 12 11 11 10 4 2 6 9 7 4 2 4 7 6 7 8 10 12 17 24 31 35 33 31 31 32 32 32 31 31 30 28 28 27 26 25 24 23 23 22 21 21 20 20 20 19 18
15 10 7 8 10 10 9 9 11 12 11 10 10 13 15 15 12 11 11 8 3 2 6 8 7 5 3 3 4 5 4 7 8 9 14 22 29 33 34 33 31 31 33 33 32 32 32 30 29 28 27 26 25 25 24 23 22 21 21 21 20 20 19
11 10 9 9 9 9 9 9 11 14 16 14 13 14 15 14 12 10 9 5 4 6 7 8 8 4 2 3 3 4 3 7 8 7 11 20 28 32 33 33 32 33 35 36 35 34 33 32 31 29 28 28 26 25 24 23 23 22 21 21 20 20 20
8 7 7 7 6 8 8 7 7 9 13 15 14 12 11 10 9 9 9 7 7 9 10 11 8 4 1 3 2 3 3 4 7 7 9 15 25 33 33 33 35 37 38 37 36 34 33 33 32 30 29 29 27 25 24 23 23 22 22 21 20 20 20
12 12 11 9 9 11 10 9 9 9 11 14 13 10 9 9 9 8 9 9 8 10 12 12 9 4 3 3 2 2 3 3 4 7 9 13 23 33 36 36 39 40 39 38 37 35 34 34 34 32 30 29 27 25 24 23 22 22 22 21 20 19 19
14 14 12 10 9 12 13 13 13 12 12 13 13 12 11 11 11 9 7 8 9 9 12 14 11 6 6 5 4 4 4 4 4 5 9 13 20 31 36 39 41 41 40 40 38 36 36 35 34 32 31 29 27 25 24 24 24 23 23 22 21 20 20
12 12 11 9 8 9 10 12 13 12 11 12 12 12 12 12 12 10 10 12 10 8 10 12 10 9 8 7 6 4 4 4 4 5 7 11 18 28 35 40 43 44 43 41 39 38 37 36 35 33 32 30 29 28 27 26 26 25 24 23 22 22 22
12 12 11 9 9 10 11 12 13 13 14 14 14 14 13 14 15 11 10 13 12 9 8 8 9 12 10 7 5 2 2 1 2 4 5 7 14 24 33 41 45 46 43 40 39 39 38 37 37 35 34 33 32 31 30 29 28 27 27 26 25 25 23
13 13 11 10 10 11 12 12 13 14 15 16 16 16 14 15 16 13 10 12 13 11 7 5 10 12 8 7 9 6 1 0 1 2 3 5 8 15 25 37 44 45 43 42 41 40 39 39 38 37 36 34 33 33 32 31 30 29 28 28 27 27 26
13 12 11 10 10 12 14 15 14 15 16 16 15 15 15 14 14 13 12 13 15 14 8 6 9 10 5 7 11 9 6 3 1 0 4 6 7 9 16 28 39 44 45 43 41 40 40 40 39 38 37 35 34 34 33 32 32 31 31 30 30 29 29
13 12 9 7 9 13 13 11 10 11 13 14 14 14 15 14 11 12 13 12 14 15 11 5 7 8 7 8 11 10 9 6 5 3 4 10 8 7 10 17 29 39 42 40 36 39 42 41 39 38 37 36 35 34 34 34 33 33 33 32 32 32 31
13 11 5 6 10 11 6 3 5 7 8 11 13 14 14 14 15 18 17 13 13 13 10 6 7 9 9 9 10 10 8 6 6 5 2 8 9 8 8 10 18 28 35 35 31 34 38 38 38 38 37 36 36 35 35 35 34 34 34 33 34 33 33
14 12 6 7 9 6 2 2 4 6 7 9 12 15 16 15 19 24 24 21 18 14 10 8 8 9 9 9 9 10 8 7 7 6 4 5 9 14 13 8 14 21 28 31 28 27 31 33 34 35 35 35 35 35 35 34 33 33 32 32 33 33 34
13 12 10 9 6 6 6 7 7 7 8 9 11 14 14 13 16 19 19 21 20 14 10 9 7 7 7 6 8 10 9 8 10 8 5 4 5 13 16 10 10 16 21 26 28 25 26 28 29 30 32 32 34 35 35 35 34 34 33 33 34 34 35
13 13 13 12 11 12 11 10 8 6 6 7 8 12 12 11 12 13 14 18 17 12 11 10 7 6 6 5 6 9 9 9 10 9 6 6 5 3 8 10 5 11 14 17 24 26 25 24 24 24 26 27 29 31 33 35 35 35 35 35 35 35 36
11 11 12 12 11 10 5 4 4 4 5 6 7 11 12 9 8 10 14 17 15 11 12 11 8 5 6 7 8 9 8 9 11 10 9 9 8 6 1 6 2 8 10 10 16 19 20 19 20 19 19 19 21 22 24 27 31 32 33 34 34 34 35
11 11 11 11 11 9 5 3 4 4 7 7 8 11 12 9 10 11 12 14 14 13 12 13 11 8 8 10 11 11 10 10 12 10 10 11 11 10 6 1 2 4 7 10 15 16 15 14 15 15 14 14 16 17 18 20 23 25 26 28 29 29 30
14 13 14 13 11 9 4 5 7 6 7 8 9 10 7 6 10 10 9 11 15 15 11 12 11 10 10 10 10 11 11 11 12 11 11 12 12 10 9 4 0 2 4 7 11 12 12 12 12 14 15 16 16 16 16 17 17 19 20 21 22 23 25
17 16 16 15 12 8 4 4 6 7 8 9 10 9 5 6 9 8 6 9 11 11 10 9 9 10 12 10 8 9 12 12 12 12 11 12 13 11 10 7 2 1 1 3 4 4 5 7 9 12 15 18 19 17 16 15 15 15 15 16 16 17 18
16 16 16 15 12 9 8 7 8 10 11 11 10 10 10 11 12 11 9 8 8 10 11 9 10 12 13 11 10 12 14 13 13 13 13 12 12 11 10 7 3 0 1 3 4 3 3 4 5 6 8 10 13 12 12 12 11 10 10 10 10 10 11
14 14 14 12 8 5 5 7 8 9 10 11 10 11 13 12 11 12 11 10 11 11 10 10 12 13 12 11 12 14 15 15 14 14 13 13 12 12 10 8 5 4 3 4 6 6 5 6 8 8 5 5 6 7 7 8 8 7 6 6 6 5 5
12 13 10 7 5 4 5 7 8 8 10 11 10 10 10 11 11 11 10 13 14 12 11 12 11 11 12 13 14 14 14 15 15 13 13 13 12 11 11 10 8 7 6 6 7 8 8 9 9 9 7 6 6 5 5 5 7 6 5 4 4 4 3
9 12 10 8 7 7 9 11 12 13 13 13 12 12 10 11 14 13 11 12 13 12 11 11 10 12 15 17 18 16 12 12 15 14 14 13 13 11 11 11 10 9 8 8 8 8 9 10 9 8 8 7 6 4 3 5 6 5 5 7 7 7 7
10 11 11 11 10 10 10 13 15 15 15 15 15 14 13 14 16 16 14 15 15 13 12 11 13 16 17 16 19 20 16 12 14 17 16 15 15 14 13 11 10 9 9 9 9 9 10 10 9 8 8 7 5 4 4 5 6 5 6 7 7 7 7
10 8 7 7 9 10 10 11 13 14 15 17 17 15 15 17 17 18 18 18 16 15 15 15 16 17 15 13 16 20 20 16 14 16 17 17 16 15 13 11 10 10 10 10 10 11 12 11 9 9 8 7 6 5 5 5 6 5 5 5 5 4 4
13 10 9 10 11 13 12 12 13 13 15 16 16 16 18 18 17 18 20 19 17 16 17 17 15 14 15 14 12 16 21 20 17 16 17 17 16 14 12 11 10 11 12 11 11 13 14 13 11 10 10 9 8 7 6 6 5 5 6 5 5 5 5
13 12 12 11 12 12 12 11 12 13 14 15 16 17 18 19 19 21 20 18 18 17 16 17 16 14 14 13 11 12 18 19 18 17 16 16 15 13 12 11 12 13 14 13 13 14 14 13 12 11 10 9 8 7 8 9 8 9 9 9 9 9 9
12 11 10 10 10 9 10 10 12 12 13 15 16 16 18 19 21 23 21 18 16 15 15 16 15 13 11 12 11 12 16 19 20 21 20 18 16 14 13 14 13 13 14 13 12 12 12 12 11 11 10 10 10 10 10 11 11 10 10 9 9 9 8
10 8 9 10 9 9 11 12 13 13 13 15 16 17 19 20 20 22 23 20 15 13 14 14 12 11 11 11 13 14 15 19 22 23 22 20 20 18 17 16 15 14 14 14 13 13 14 14 13 12 12 11 11 11 10 10 10 9 8 7 6 6 5
7 7 8 7 7 8 10 11 12 13 14 16 17 18 20 20 18 20 23 20 14 12 12 12 13 14 13 12 14 15 14 16 19 24 25 22 21 21 19 18 18 17 17 16 15 15 16 16 15 13 12 11 11 10 9 8 7 7 6 5 4 4 3
7 9 8 6 6 8 9 9 10 12 15 16 16 17 18 18 18 21 22 18 14 12 12 14 15 15 15 15 16 16 14 15 18 25 27 23 21 22 21 20 19 18 18 17 16 16 16 15 14 13 12 10 9 8 7 6 5 4 3 3 2 2 1
Wind_Direction
242 257 263 247 255 259 261 260 244 236 249 259 261 270 275 267 269 271 256 245 241 236 195 219 214 182 202 217 207 185 186 204 206 205 207 201 194 195 198 202 206 202 201 204 205 202 199 198 196 195 196 196 198 199 199 202 204 206 207 206 206 206 206
238 260 273 251 248 251 250 263 260 251 262 266 262 268 269 252 252 268 266 253 231 212 215 245 239 195 208 226 229 223 207 206 205 201 204 204 195 193 197 202 207 205 201 204 206 203 201 199 197 196 195 195 195 195 196 199 199 200 202 203 203 204 204
262 266 266 242 237 253 256 266 271 257 261 264 253 255 261 250 246 265 264 250 232 216 208 254 284 249 219 223 227 234 230 220 209 198 199 201 195 190 194 201 204 205 203 204 207 205 202 200 199 197 196 196 195 194 195 197 195 192 196 200 201 203 202
272 264 252 242 258 265 252 256 262 249 254 267 266 275 282 269 255 268 273 258 233 153 169 264 297 285 252 238 226 229 240 229 221 210 201 202 199 191 192 199 205 206 204 204 206 206 203 201 201 198 197 197 195 195 196 197 195 192 194 198 200 202 203
261 270 247 247 284 275 238 242 254 243 246 256 259 264 260 254 256 263 278 276 239 136 278 298 298 284 276 273 244 224 236 237 228 221 208 204 203 199 194 198 208 208 204 203 205 206 203 202 202 199 197 198 197 197 198 198 197 196 197 200 201 202 204
257 275 261 254 285 293 267 264 260 247 250 253 251 259 252 245 250 250 259 276 237 156 312 325 308 277 270 304 283 234 222 235 238 230 217 207 204 203 199 200 208 209 203 202 204 205 204 203 203 200 198 198 198 200 201 199 200 199 200 202 203 204 205
268 266 272 267 269 279 276 270 267 260 253 246 232 252 267 262 254 252 258 264 251 252 319 333 324 302 290 296 302 275 220 230 248 235 223 212 202 200 199 198 204 206 202 201 201 203 204 204 205 203 200 199 198 200 202 201 202 203 203 205 206 207 208
272 258 263 271 270 272 262 256 266 257 240 239 239 247 267 273 263 260 261 255 248 288 312 319 319 335 332 288 309 310 240 233 254 238 225 217 204 198 198 198 201 202 200 202 202 202 203 204 205 205 202 201 199 200 201 202 204 205 206 208 209 210 211
261 244 250 261 259 259 255 263 276 257 239 243 251 254 265 267 262 265 265 258 294 316 316 310 311 337 322 276 333 343 269 249 262 252 232 221 206 199 199 199 200 198 198 201 202 201 202 203 205 205 203 203 202 201 201 202 204 205 208 210 211 212 214
273 262 276 287 269 257 258 276 295 274 253 252 256 256 258 264 274 275 262 256 289 311 312 310 319 349 281 265 324 354 322 277 268 257 246 227 207 200 199 197 196 196 197 200 202 202 203 204 205 205 204 203 202 202 203 203 203 205 208 210 212 213 215
283 285 294 300 277 263 265 272 274 265 259 263 270 274 268 273 284 272 248 248 274 295 298 302 317 324 251 253 282 317 340 329 279 252 245 231 210 201 198 195 193 193 197 201 203 202 202 203 204 203 203 203 203 203 205 206 207 208 210 211 213 215 218
270 275 283 290 273 264 268 269 265 261 260 263 269 282 289 285 276 270 268 265 268 284 292 300 310 287 239 248 283 308 326 331 319 275 250 235 215 204 199 196 194 194 196 199 202 201 200 202 203 203 203 203 203 202 204 209 211 212 214 215 216 217 219
271 273 275 277 269 263 269 268 261 259 262 258 256 268 283 283 272 272 286 282 274 282 290 297 299 275 255 265 282 300 312 318 337 311 266 238 219 209 202 197 197 199 197 196 198 199 199 200 202 203 204 205 204 204 205 209 213 214 216 218 219 221 221
281 279 273 269 262 261 272 274 262 256 259 258 257 261 266 275 279 275 277 282 284 278 272 278 277 270 268 259 237 242 324 343 1 322 284 243 223 216 207 201 201 203 199 194 197 200 199 200 202 203 205 206 207 207 208 211 213 215 218 219 221 225 226
282 276 267 261 261 262 269 268 255 251 255 254 256 260 259 269 278 275 271 283 284 268 253 270 270 266 268 231 206 199 207 131 40 337 299 268 235 220 213 207 204 204 202 198 199 201 201 202 203 205 206 208 209 210 211 213 215 217 220 222 224 226 230
277 276 264 259 269 275 272 265 254 249 251 252 255 258 261 270 277 275 273 280 281 272 273 294 273 261 253 217 211 213 218 221 207 359 343 322 270 235 226 214 206 205 207 206 202 202 204 204 205 207 208 210 212 212 213 214 216 218 220 223 226 228 231
276 279 272 275 288 283 271 258 246 241 246 257 265 263 264 273 277 268 262 266 275 275 274 275 256 249 241 226 222 224 226 229 223 216 349 348 319 271 249 225 210 207 208 209 208 206 206 206 206 208 210 212 214 214 215 217 218 220 221 222 226 229 232
273 276 285 290 279 273 274 259 236 238 247 262 272 271 268 267 262 256 254 260 275 278 270 247 237 242 244 235 226 220 220 221 209 195 18 5 347 319 290 248 226 215 209 208 209 209 207 205 206 209 210 213 215 216 218 221 222 223 224 225 227 230 233
270 276 279 271 266 268 322 322 268 257 264 269 273 274 272 264 259 258 259 260 265 267 263 254 249 251 250 240 227 221 221 206 178 150 94 47 10 351 336 283 237 227 219 214 214 215 211 209 210 213 215 217 218 220 222 224 226 227 229 230 233 234 237
262 267 259 252 280 313 291 270 273 273 273 277 278 279 277 263 254 254 253 253 254 257 262 260 256 253 246 234 223 224 229 208 175 150 115 100 45 4 348 317 248 232 227 217 214 216 213 209 212 217 220 221 221 222 224 226 227 229 231 233 235 238 241
251 261 264 264 282 294 274 253 255 266 274 286 287 286 283 269 257 254 252 249 246 247 254 252 246 242 232 229 227 220 219 208 186 167 149 146 131 37 342 330 270 223 218 204 203 210 211 209 211 214 218 222 223 225 227 229 230 231 233 236 238 241 245
248 258 275 274 271 280 277 228 227 252 275 291 294 287 277 262 252 256 261 255 242 237 245 242 238 232 209 217 235 225 206 198 189 174 159 155 149 142 67 348 323 205 199 176 181 200 207 207 209 212 216 221 224 227 229 230 232 234 236 239 242 245 248
249 251 263 266 268 280 285 227 229 266 284 292 298 285 266 241 238 252 263 254 231 225 239 240 238 230 199 208 234 232 205 181 174 168 156 152 145 135 132 30 337 211 190 168 171 188 198 203 209 213 219 224 227 229 228 226 228 231 234 238 242 244 248
245 247 254 260 272 285 273 237 247 269 286 291 289 278 261 245 256 268 284 265 236 223 231 243 244 229 204 211 236 230 202 177 167 164 153 146 143 135 133 139 279 277 211 182 181 193 203 213 220 222 225 233 238 239 235 230 228 230 233 238 242 246 249
242 244 250 257 264 269 261 249 255 264 277 283 277 273 284 291 282 287 308 292 260 237 236 245 243 221 207 217 238 214 192 181 172 167 158 148 147 146 141 140 140 303 216 161 157 183 208 219 228 232 234 234 234 233 229 225 226 231 237 244 249 253 256
250 253 258 262 264 260 252 249 259 269 276 277 275 281 291 292 289 292 299 298 281 263 252 242 234 224 214 218 223 202 189 188 181 173 165 157 157 159 155 147 146 224 194 150 138 147 185 187 189 212 229 225 218 212 204 201 206 218 232 244 250 253 254
247 251 255 262 267 256 242 250 268 279 275 270 274 285 290 292 292 295 295 285 274 272 266 244 229 221 213 213 212 200 194 196 191 181 174 167 165 167 164 157 161 185 208 192 168 167 177 171 160 159 163 173 181 181 171 170 178 188 205 222 226 225 231
247 246 253 272 270 243 250 263 265 264 264 268 274 280 289 295 290 286 290 283 274 274 274 261 240 226 225 223 212 204 206 209 203 191 183 180 177 177 175 171 176 193 209 208 196 187 185 182 173 159 146 144 158 167 165 166 173 172 163 150 134 124 124
260 254 271 294 282 260 266 270 261 256 263 272 274 271 272 276 275 273 278 278 273 270 271 269 254 241 239 232 218 207 206 220 223 212 197 192 191 192 194 189 190 203 212 209 204 196 186 185 180 162 144 141 151 163 175 181 180 167 144 129 116 108 111
269 261 262 271 270 263 264 266 262 261 264 268 271 271 266 264 268 270 268 270 273 270 263 257 246 240 241 240 230 213 189 187 211 214 209 206 202 204 209 206 198 201 205 203 199 187 177 176 172 161 151 149 158 174 183 181 176 164 149 144 133 120 120
265 266 249 247 257 260 260 265 268 268 266 264 265 267 265 266 270 269 265 267 271 269 262 255 247 243 245 252 247 230 209 192 192 199 203 206 207 208 207 202 196 192 191 193 190 178 173 175 174 171 170 168 180 199 201 190 185 176 167 164 157 143 135
251 257 255 256 265 270 271 272 270 269 269 267 264 264 266 268 269 266 262 262 264 263 260 255 248 245 248 251 254 249 236 220 202 198 203 205 206 204 194 186 187 180 171 174 176 171 175 181 181 180 184 188 194 201 193 178 170 161 154 150 145 140 133
246 253 257 263 276 283 283 280 272 267 270 271 268 267 267 265 265 263 258 255 255 255 255 254 250 250 253 253 253 255 246 228 205 193 196 199 199 194 185 182 183 172 161 161 165 168 175 181 179 179 184 182 175 166 153 144 137 132 131 130 127 125 121
244 247 248 257 271 271 267 278 285 280 276 277 278 276 271 265 262 261 257 252 248 248 251 253 252 251 255 260 259 254 250 236 212 186 173 176 183 184 184 184 178 163 153 152 158 164 166 165 163 162 164 160 152 145 139 133 127 122 121 120 118 115 110
246 245 248 257 266 262 260 274 287 286 285 289 290 282 272 264 257 256 255 250 242 243 249 251 249 245 244 250 255 254 254 245 219 184 162 163 172 174 173 169 160 152 146 144 148 152 150 149 148 147 147 146 142 140 138 132 128 125 121 116 113 110 106
234 231 241 251 261 267 272 277 282 289 296 297 289 275 266 261 252 249 251 247 237 236 242 238 235 235 234 239 243 239 243 244 215 177 158 157 163 162 155 148 144 144 142 141 144 146 144 145 146 145 146 147 143 142 142 139 137 136 133 132 132 128 129
214 224 240 265 279 278 280 280 284 303 314 305 286 271 267 264 255 248 247 242 229 226 229 226 227 230 231 236 236 227 232 242 213 175 154 147 149 150 147 143 141 143 143 143 147 148 146 147 150 150 151 153 151 152 153 150 152 154 149 154 168 176 200
Height
3158 3158 3158 3158 3159 3158 3159 3158 3156 3154 3156 3155 3152 3150 3150 3154 3156 3156 3154 3152 3151 3153 3153 3153 3153 3153 3153 3152 3152 3152 3152 3152 3154 3157 3161 3164 3168 3172 3174 3175 3176 3178 3180 3182 3184 3187 3189 3190 3192 3194 3196 3198 3200 3201 3203 3205 3206 3207 3209 3210 3212 3213 3215
3156 3157 3157 3157 3157 3157 3158 3158 3156 3156 3157 3156 3155 3153 3153 3154 3154 3153 3152 3151 3150 3152 3153 3152 3152 3153 3153 3152 3152 3152 3151 3151 3152 3154 3158 3162 3165 3169 3173 3173 3174 3176 3178 3180 3183 3185 3187 3189 3191 3193 3195 3197 3199 3200 3202 3204 3205 3207 3208 3210 3211 3212 3214
3155 3156 3156 3156 3156 3156 3157 3156 3156 3157 3158 3156 3156 3154 3153 3152 3151 3151 3151 3149 3147 3149 3151 3151 3151 3152 3152 3152 3152 3152 3150 3150 3150 3152 3156 3159 3162 3166 3170 3171 3171 3174 3176 3178 3181 3184 3186 3188 3190 3192 3194 3196 3198 3199 3201 3203 3204 3206 3208 3209 3210 3212 3213
3154 3155 3155 3155 3155 3155 3155 3155 3155 3156 3157 3156 3156 3155 3154 3152 3149 3150 3151 3147 3145 3148 3150 3150 3151 3151 3151 3150 3150 3150 3150 3149 3149 3151 3153 3156 3160 3163 3167 3169 3169 3171 3174 3177 3180 3182 3184 3187 3189 3191 3193 3195 3197 3198 3200 3202 3203 3205 3207 3208 3209 3211 3212
3153 3153 3154 3155 3155 3154 3154 3155 3155 3155 3155 3154 3154 3155 3155 3153 3149 3150 3152 3148 3146 3149 3149 3149 3150 3149 3149 3149 3148 3148 3148 3148 3147 3149 3151 3154 3157 3161 3164 3166 3167 3170 3173 3175 3178 3180 3183 3185 3187 3189 3192 3193 3195 3197 3199 3201 3202 3204 3205 3207 3208 3210 3211
3151 3152 3153 3154 3155 3154 3154 3154 3154 3154 3155 3154 3155 3155 3154 3151 3148 3148 3149 3147 3146 3148 3148 3148 3148 3147 3148 3148 3147 3146 3146 3146 3146 3147 3149 3151 3154 3158 3161 3164 3166 3168 3171 3174 3176 3179 3181 3183 3186 3188 3190 3192 3194 3196 3198 3200 3201 3203 3204 3206 3207 3208 3210
3150 3151 3152 3154 3154 3154 3154 3154 3153 3154 3154 3155 3156 3157 3154 3150 3147 3146 3146 3144 3145 3147 3148 3147 3147 3146 3146 3146 3145 3145 3144 3144 3144 3145 3146 3148 3151 3154 3158 3161 3164 3167 3169 3172 3174 3177 3179 3181 3184 3186 3188 3190 3192 3194 3196 3198 3200 3201 3203 3204 3205 3207 3208
3150 3150 3152 3154 3153 3153 3153 3154 3153 3153 3154 3155 3155 3156 3154 3150 3146 3145 3144 3143 3145 3146 3146 3146 3145 3145 3145 3144 3144 3143 3141 3141 3143 3144 3145 3146 3148 3152 3155 3159 3162 3165 3168 3170 3172 3174 3177 3179 3182 3184 3186 3188 3190 3192 3194 3196 3198 3199 3201 3202 3204 3205 3207
3148 3148 3151 3152 3153 3153 3153 3153 3152 3152 3153 3154 3154 3154 3153 3150 3145 3144 3143 3142 3145 3146 3145 3145 3144 3143 3144 3144 3143 3142 3141 3141 3141 3142 3143 3144 3146 3150 3153 3156 3159 3162 3165 3168 3170 3172 3175 3177 3179 3182 3184 3186 3188 3190 3192 3194 3196 3198 3199 3201 3202 3204 3205
3148 3147 3148 3151 3153 3153 3153 3152 3152 3153 3153 3154 3153 3151 3151 3148 3145 3144 3143 3143 3146 3146 3145 3144 3143 3142 3143 3143 3142 3142 3141 3140 3140 3141 3142 3143 3145 3148 3150 3153 3157 3160 3163 3165 3168 3170 3173 3175 3177 3180 3182 3184 3186 3189 3190 3192 3194 3196 3197 3199 3200 3202 3203
3151 3150 3150 3151 3152 3152 3152 3152 3152 3153 3153 3152 3150 3149 3149 3147 3146 3144 3143 3144 3146 3146 3144 3143 3142 3142 3142 3141 3141 3141 3141 3140 3139 3139 3140 3141 3143 3145 3147 3150 3153 3157 3160 3163 3165 3168 3171 3173 3175 3178 3180 3183 3185 3187 3189 3190 3192 3194 3196 3197 3199 3200 3201
3151 3150 3150 3150 3151 3150 3151 3151 3150 3151 3151 3150 3150 3150 3149 3148 3147 3144 3143 3144 3145 3144 3143 3142 3142 3142 3141 3141 3141 3141 3140 3140 3139 3138 3139 3139 3141 3143 3145 3148 3151 3154 3156 3160 3163 3166 3169 3171 3173 3176 3178 3180 3183 3186 3187 3189 3190 3192 3194 3195 3197 3198 3199
3149 3149 3148 3149 3149 3149 3149 3150 3149 3150 3150 3149 3149 3149 3149 3149 3147 3144 3144 3144 3144 3142 3141 3141 3141 3140 3141 3142 3142 3141 3140 3139 3139 3138 3138 3138 3139 3141 3142 3145 3148 3151 3152 3156 3161 3164 3166 3169 3171 3173 3176 3178 3181 3183 3185 3187 3188 3190 3192 3193 3194 3196 3197
3148 3148 3147 3147 3147 3147 3147 3148 3147 3148 3148 3148 3148 3148 3148 3148 3147 3145 3144 3143 3142 3141 3140 3140 3139 3138 3140 3142 3141 3140 3140 3139 3139 3138 3138 3138 3138 3139 3141 3142 3144 3148 3150 3154 3158 3161 3164 3167 3169 3172 3174 3176 3179 3181 3183 3185 3186 3188 3189 3191 3192 3193 3193
3147 3146 3146 3146 3146 3145 3145 3145 3145 3146 3146 3146 3146 3146 3146 3147 3145 3144 3144 3143 3142 3140 3138 3138 3138 3137 3138 3140 3140 3140 3139 3138 3138 3138 3138 3139 3138 3139 3140 3141 3143 3147 3150 3151 3153 3158 3161 3164 3167 3169 3172 3174 3176 3179 3181 3183 3184 3186 3187 3188 3189 3190 3190
3145 3144 3143 3143 3144 3144 3144 3143 3143 3144 3144 3144 3144 3144 3144 3144 3144 3143 3144 3143 3142 3140 3137 3136 3136 3136 3136 3137 3138 3138 3138 3138 3138 3138 3138 3139 3139 3139 3140 3141 3142 3145 3149 3150 3151 3154 3158 3161 3164 3167 3169 3172 3174 3177 3179 3181 3182 3184 3185 3186 3187 3188 3188
3144 3142 3142 3143 3144 3143 3141 3140 3140 3142 3143 3142 3143 3143 3141 3142 3143 3143 3142 3141 3141 3140 3137 3135 3135 3135 3135 3135 3136 3137 3137 3137 3137 3138 3139 3139 3139 3139 3140 3141 3141 3143 3146 3149 3149 3151 3153 3157 3161 3164 3167 3169 3172 3174 3176 3178 3179 3181 3182 3184 3184 3185 3185
3144 3142 3142 3144 3144 3141 3137 3138 3139 3141 3142 3141 3141 3141 3141 3141 3142 3141 3140 3140 3140 3139 3137 3135 3134 3134 3134 3134 3134 3135 3136 3136 3136 3137 3138 3138 3137 3138 3140 3141 3142 3143 3144 3146 3147 3147 3149 3153 3158 3161 3164 3167 3169 3171 3173 3175 3177 3178 3180 3181 3182 3183 3183
3144 3141 3142 3143 3141 3137 3137 3138 3139 3140 3141 3141 3140 3139 3139 3140 3139 3138 3138 3138 3138 3137 3136 3134 3133 3133 3133 3134 3134 3134 3135 3136 3136 3136 3136 3136 3135 3136 3138 3139 3141 3142 3143 3144 3147 3150 3152 3154 3157 3159 3162 3164 3166 3168 3170 3172 3174 3176 3178 3179 3180 3181 3181
3144 3142 3141 3139 3137 3136 3137 3139 3139 3139 3140 3140 3139 3138 3137 3137 3136 3136 3136 3136 3136 3136 3135 3134 3133 3133 3133 3133 3133 3133 3134 3135 3136 3136 3134 3134 3133 3134 3135 3137 3138 3139 3141 3143 3147 3151 3152 3154 3156 3158 3159 3161 3163 3165 3167 3169 3171 3173 3174 3176 3177 3178 3178
3142 3140 3138 3137 3136 3136 3136 3137 3138 3138 3139 3139 3138 3136 3136 3136 3135 3135 3134 3134 3135 3135 3134 3133 3133 3132 3132 3133 3133 3133 3134 3135 3135 3134 3133 3132 3132 3133 3133 3134 3135 3137 3140 3142 3144 3147 3149 3151 3153 3155 3157 3159 3161 3163 3165 3167 3168 3170 3171 3172 3174 3175 3175
3141 3141 3139 3137 3135 3134 3133 3135 3137 3137 3137 3137 3137 3135 3134 3135 3134 3134 3133 3133 3133 3133 3133 3133 3132 3132 3132 3133 3133 3133 3134 3135 3135 3134 3132 3132 3132 3132 3133 3133 3134 3135 3137 3139 3141 3144 3147 3149 3151 3153 3154 3156 3159 3160 3162 3164 3166 3168 3169 3170 3172 3173 3173
3140 3141 3139 3136 3134 3133 3133 3135 3136 3137 3136 3135 3135 3134 3132 3132 3132 3131 3131 3131 3131 3131 3131 3130 3131 3132 3132 3133 3133 3134 3134 3134 3134 3133 3132 3131 3131 3131 3132 3133 3134 3135 3136 3137 3140 3143 3146 3148 3150 3151 3152 3154 3157 3159 3160 3162 3163 3165 3166 3167 3168 3169 3169
3138 3138 3136 3134 3133 3133 3133 3134 3136 3136 3135 3134 3134 3132 3130 3130 3130 3130 3129 3129 3129 3129 3128 3129 3130 3131 3131 3131 3133 3135 3135 3135 3135 3134 3132 3131 3131 3130 3131 3133 3135 3137 3139 3140 3141 3143 3145 3146 3148 3150 3151 3152 3155 3156 3158 3159 3161 3162 3164 3165 3166 3167 3167
3135 3134 3133 3131 3131 3132 3133 3134 3135 3134 3134 3133 3132 3130 3128 3129 3130 3129 3128 3128 3127 3126 3126 3127 3129 3130 3131 3131 3132 3134 3135 3136 3135 3134 3133 3132 3131 3131 3131 3132 3134 3138 3140 3141 3143 3144 3145 3146 3147 3148 3150 3151 3153 3154 3156 3157 3159 3160 3161 3162 3163 3164 3164
3133 3132 3130 3129 3129 3130 3132 3133 3133 3133 3132 3132 3130 3129 3129 3129 3129 3128 3128 3128 3127 3125 3125 3127 3128 3129 3131 3131 3130 3132 3134 3135 3135 3134 3133 3133 3132 3132 3132 3133 3134 3137 3139 3141 3142 3144 3145 3145 3146 3148 3149 3150 3152 3153 3154 3155 3157 3158 3159 3160 3161 3162 3162
3131 3130 3129 3128 3128 3129 3130 3131 3132 3132 3131 3130 3130 3129 3129 3128 3128 3128 3127 3127 3127 3125 3124 3126 3128 3129 3130 3130 3130 3131 3133 3134 3134 3134 3134 3133 3133 3133 3133 3134 3135 3138 3139 3141 3142 3143 3144 3145 3146 3148 3150 3151 3152 3153 3153 3154 3156 3157 3158 3159 3160 3161 3161
3128 3128 3128 3128 3128 3129 3129 3131 3131 3131 3129 3129 3129 3129 3129 3129 3128 3128 3127 3126 3126 3126 3125 3125 3126 3128 3129 3129 3130 3131 3132 3133 3134 3134 3134 3134 3134 3134 3134 3135 3136 3138 3140 3141 3142 3143 3144 3145 3146 3148 3149 3150 3152 3153 3153 3154 3156 3157 3158 3159 3159 3160 3160
3128 3128 3128 3127 3127 3128 3128 3129 3129 3128 3128 3128 3128 3128 3128 3128 3127 3127 3126 3125 3125 3125 3125 3124 3125 3126 3127 3127 3128 3130 3131 3133 3133 3133 3134 3134 3135 3135 3135 3135 3136 3138 3139 3141 3142 3143 3144 3145 3146 3147 3149 3150 3151 3152 3153 3154 3155 3157 3157 3158 3158 3159 3160
3128 3128 3127 3127 3127 3127 3127 3127 3126 3126 3126 3126 3126 3126 3126 3126 3125 3124 3124 3123 3123 3124 3125 3124 3123 3124 3125 3127 3129 3129 3129 3131 3131 3132 3133 3134 3134 3135 3135 3135 3136 3137 3139 3140 3141 3142 3143 3144 3146 3147 3148 3150 3151 3152 3153 3154 3155 3156 3157 3158 3158 3159 3160
3127 3126 3126 3126 3126 3126 3125 3125 3124 3124 3124 3124 3124 3124 3123 3123 3123 3122 3121 3122 3122 3123 3123 3122 3122 3123 3125 3128 3130 3130 3130 3130 3130 3130 3132 3133 3133 3134 3135 3135 3136 3137 3138 3140 3140 3142 3143 3144 3145 3147 3148 3149 3151 3152 3153 3154 3155 3156 3157 3158 3159 3159 3160
3125 3125 3125 3124 3124 3123 3123 3123 3123 3122 3121 3121 3121 3121 3121 3121 3121 3120 3119 3121 3121 3121 3121 3121 3121 3122 3124 3126 3128 3130 3130 3130 3130 3130 3131 3133 3134 3134 3135 3136 3136 3137 3138 3139 3140 3141 3143 3144 3145 3146 3147 3149 3150 3151 3152 3153 3154 3155 3156 3157 3158 3159 3160
3124 3124 3123 3123 3123 3122 3121 3121 3121 3120 3119 3119 3119 3119 3119 3119 3118 3117 3116 3118 3120 3120 3119 3120 3120 3122 3123 3124 3126 3128 3128 3129 3129 3130 3131 3133 3135 3135 3136 3136 3137 3137 3138 3139 3140 3141 3143 3144 3145 3146 3147 3149 3150 3151 3152 3153 3154 3155 3156 3157 3158 3159 3160
3122 3122 3122 3121 3122 3121 3120 3119 3118 3118 3117 3117 3117 3117 3116 3116 3115 3114 3113 3115 3118 3119 3118 3118 3120 3121 3122 3123 3124 3126 3127 3127 3127 3127 3129 3131 3133 3134 3135 3136 3137 3138 3138 3139 3141 3142 3143 3144 3146 3147 3148 3149 3150 3151 3152 3153 3154 3155 3156 3157 3158 3158 3159
3120 3120 3120 3120 3120 3120 3118 3117 3117 3116 3116 3115 3115 3114 3113 3112 3112 3111 3109 3111 3115 3118 3117 3117 3118 3119 3120 3120 3122 3123 3125 3125 3125 3126 3128 3129 3130 3132 3134 3135 3137 3138 3139 3140 3142 3143 3144 3145 3147 3148 3149 3150 3151 3152 3153 3153 3154 3155 3156 3157 3157 3158 3159
3119 3119 3118 3118 3118 3118 3117 3116 3116 3115 3114 3113 3112 3110 3109 3109 3109 3108 3106 3108 3113 3116 3116 3116 3116 3116 3118 3119 3120 3122 3123 3124 3125 3126 3128 3129 3130 3131 3133 3135 3137 3139 3140 3141 3143 3144 3145 3146 3147 3148 3149 3150 3151 3152 3153 3154 3155 3156 3156 3157 3158 3159 3160
3117 3117 3116 3116 3116 3116 3115 3115 3114 3114 3112 3110 3108 3107 3106 3106 3107 3105 3104 3107 3111 3113 3114 3114 3114 3115 3117 3118 3119 3120 3121 3123 3125 3126 3127 3130 3133 3133 3134 3136 3138 3139 3141 3142 3143 3144 3145 3146 3147 3148 3150 3151 3152 3153 3153 3154 3155 3156 3157 3158 3158 3159 3160